TimeEST,TemperatureF,Dew PointF,Humidity,Sea Level PressureIn,VisibilityMPH,Wind Direction,Wind SpeedMPH,Gust SpeedMPH,PrecipitationIn,Events,Conditions,WindDirDegrees,DateUTC
12:53 AM,55.9,52.0,87,30.19,10.0,NNW,4.6,-,N/A,,Clear,330,2013-03-08 05:53:00
1:53 AM,55.0,52.0,89,30.18,10.0,NW,5.8,-,N/A,,Partly Cloudy,310,2013-03-08 06:53:00
2:53 AM,55.0,51.1,86,30.16,10.0,NW,8.1,-,N/A,,Clear,320,2013-03-08 07:53:00
3:53 AM,53.1,51.1,93,30.16,10.0,NNW,5.8,-,N/A,,Clear,330,2013-03-08 08:53:00
4:53 AM,53.1,50.0,89,30.16,10.0,NNW,4.6,-,N/A,,Clear,340,2013-03-08 09:53:00
5:53 AM,52.0,48.9,89,30.17,10.0,NNW,4.6,-,N/A,,Clear,330,2013-03-08 10:53:00
6:53 AM,53.1,48.9,86,30.19,10.0,NNW,4.6,-,N/A,,Clear,330,2013-03-08 11:53:00
7:53 AM,59.0,50.0,72,30.21,10.0,NNW,8.1,-,N/A,,Clear,340,2013-03-08 12:53:00
8:53 AM,64.9,48.9,56,30.21,10.0,North,11.5,-,N/A,,Clear,350,2013-03-08 13:53:00
9:53 AM,70.0,45.0,41,30.22,10.0,North,10.4,-,N/A,,Clear,10,2013-03-08 14:53:00
10:53 AM,72.0,44.1,37,30.22,10.0,NNE,6.9,-,N/A,,Clear,20,2013-03-08 15:53:00
11:53 AM,73.0,45.0,37,30.20,10.0,NW,8.1,-,N/A,,Clear,310,2013-03-08 16:53:00
12:53 PM,73.9,44.1,34,30.18,10.0,North,9.2,-,N/A,,Clear,350,2013-03-08 17:53:00
1:53 PM,77.0,42.1,29,30.15,10.0,North,5.8,-,N/A,,Clear,360,2013-03-08 18:53:00
2:53 PM,75.9,42.1,30,30.14,10.0,West,8.1,18.4,N/A,,Clear,280,2013-03-08 19:53:00
3:53 PM,77.0,41.0,28,30.12,10.0,NNW,8.1,-,N/A,,Clear,340,2013-03-08 20:53:00
4:53 PM,73.0,48.0,41,30.13,10.0,East,9.2,-,N/A,,Clear,90,2013-03-08 21:53:00
5:53 PM,71.1,48.9,45,30.15,10.0,East,8.1,-,N/A,,Clear,80,2013-03-08 22:53:00
6:53 PM,66.9,50.0,54,30.16,10.0,ENE,5.8,-,N/A,,Clear,60,2013-03-08 23:53:00
7:53 PM,66.0,51.1,59,30.18,10.0,Calm,Calm,-,N/A,,Clear,0,2013-03-09 00:53:00
8:53 PM,64.0,51.1,63,30.19,10.0,North,4.6,-,N/A,,Clear,360,2013-03-09 01:53:00
9:53 PM,62.1,51.1,67,30.20,10.0,North,5.8,-,N/A,,Clear,360,2013-03-09 02:53:00
10:53 PM,60.1,51.1,72,30.19,10.0,NNE,4.6,-,N/A,,Clear,20,2013-03-09 03:53:00
11:53 PM,59.0,50.0,72,30.17,10.0,North,5.8,-,N/A,,Clear,10,2013-03-09 04:53:00